Regional Weather Roundup
Issued by NWS

Home | Current Version | Previous Version | Graphics & Text | Print | Product List | Glossary On
Versions: 1 2 3 4 5 6 7 8 9 10 11 12 13 14 15 16 17 18 19 20 21 22 23 24 25 26 27 28 29 30 31 32 33 34 35 36 37 38 39 40 41 42 43 44 45 46 47 48 49 50
000
ASUS43 KBIS 052310
RWRND

NORTH DAKOTA REGIONAL WEATHER ROUNDUP
NATIONAL WEATHER SERVICE BISMARCK ND
600 PM CDT TUE MAY 05 2015

NOTE: "FAIR" INDICATES FEW OR NO CLOUDS BELOW 12,000 FEET WITH NO
SIGNIFICANT WEATHER AND/OR OBSTRUCTIONS TO VISIBILITY.


NDZ001>003-009>011-017-060000-
NORTHWEST NORTH DAKOTA

CITY           SKY/WX    TMP DP  RH WIND       PRES   REMARKS
WILLISTON      PTSUNNY   81  46  29 S17       29.74F
MINOT          SUNNY     77  27  15 SE20G31   29.84F
MINOT AFB      SUNNY     79  31  17 S23G30    29.83F
$$

NDZ018>021-031>035-040>046-060000-
SOUTHWEST NORTH DAKOTA

CITY           SKY/WX    TMP DP  RH WIND       PRES   REMARKS
BISMARCK       SUNNY     78  38  23 S17       29.86F
DICKINSON      MOSUNNY   69  49  48 S24G32    29.81F
GARRISON         N/A     76  37  24 S20       29.84F
HETTINGER ARPT PTSUNNY   67  50  54 SE18G32   29.85F
$$

NDZ004>008-012>016-024-026-027-054-060000-
NORTHEAST NORTH DAKOTA

CITY           SKY/WX    TMP DP  RH WIND       PRES   REMARKS
GRAND FORKS    MOSUNNY   78  23  13 S16G24    29.96F
GRND FRKS AFB  MOSUNNY   77  24  13 SE16G25   29.96F
DEVILS LAKE    MOSUNNY   75  27  16 SE16      29.93F
$$

NDZ022-023-025-028>030-036>039-047>053-060000-
SOUTHEAST NORTH DAKOTA

CITY           SKY/WX    TMP DP  RH WIND       PRES   REMARKS
FARGO          SUNNY     78  42  27 S16G30    29.96F
JAMESTOWN      SUNNY     76  39  26 S22G30    29.92F
$$




USA.gov is the U.S. government's official web portal to all federal, state and local government web resources and services.